CAPE
382 772 1579 1999 1719 1702 2079 2277 2321 2148 1892 1877 1525 1445 1417 1336 1337 1326 1448 1430 1737 1528 1629 1300 1224 988 1046 998 1088 1059 1436 1239 1198 914 870 815 868 639 226 591 299 193 476
350 752 1801 1806 1638 1931 2126 2204 1972 1868 1762 1710 1679 1460 1493 1457 1352 1420 1425 1609 1655 1424 1414 1346 1282 1089 1085 996 832 938 877 840 828 559 328 300 440 737 366 642 467 239 404
484 843 1586 1810 1684 1897 1843 1704 1544 1697 1832 1670 1789 1798 1552 1442 1429 1467 1420 1304 1341 1276 1362 1217 1145 1177 981 928 956 877 819 723 739 570 425 307 83 449 207 776 900 749 406
636 1185 1245 1812 1809 1876 1848 1726 1542 1589 1825 1835 1903 1867 1557 1419 1331 1335 1269 1193 1247 1163 1153 1120 1172 1056 1079 1120 1088 771 703 564 534 433 80 265 250 489 9 429 710 325 119
882 1252 1357 1808 1833 1836 1867 1708 1662 1824 1953 1736 1680 1713 1532 1395 1237 1120 1176 1050 1308 1374 1384 1178 949 1067 1212 1165 1020 755 510 425 186 300 450 346 87 48 68 76 430 421 447
940 982 1532 1741 1806 1686 1648 1606 1851 2072 1982 1855 1713 1514 1446 1135 1140 1070 1105 1107 1296 1308 1318 1191 1176 1022 961 989 852 684 569 458 17 39 36 5 11 27 228 121 316 424 469
848 1081 1785 1847 1810 1721 1520 1549 1945 1954 1888 1729 1676 1522 1266 1314 1236 1020 1232 1209 1202 1229 1197 1099 872 800 761 728 573 442 381 176 328 181 65 306 87 108 44 129 90 399 366
842 1323 1648 1632 1606 1641 1432 1608 1613 1779 1758 1635 1622 1581 1377 1326 1391 1256 1005 1156 1126 990 879 878 780 707 580 424 154 79 41 189 226 394 430 661 501 210 16 9 74 292 328
1109 1619 1625 1582 1235 1277 1071 1407 1512 1488 1368 1357 1276 1143 839 612 800 753 727 775 934 866 803 713 560 421 271 116 7 2 0 148 355 518 479 662 455 284 152 10 13 258 335
1171 1504 1500 1522 1065 1115 1161 1115 1112 988 940 849 574 260 190 401 490 571 369 414 522 496 415 271 173 96 19 6 3 1 0 30 257 250 540 565 629 373 405 318 81 367 420
1450 1530 1499 1473 1064 1067 1174 944 630 517 359 156 112 107 357 595 482 341 199 244 289 186 11 8 8 6 5 3 3 0 0 2 11 136 242 171 665 383 369 285 331 309 368
1386 1677 1628 1473 1330 1187 1158 1130 1044 684 667 425 351 347 216 124 71 13 0 1 11 8 4 4 1 0 0 0 0 0 0 0 1 3 14 239 492 365 358 485 410 332 295
1382 1390 1570 1365 1282 1039 1193 1018 872 777 413 305 310 42 10 7 11 4 1 1 2 0 1 0 0 0 0 0 0 0 0 0 0 0 4 20 233 326 466 368 343 340 274
1221 1364 1615 1372 1106 803 872 516 510 345 259 75 23 6 10 30 29 1 0 0 0 1 0 0 0 0 0 0 0 0 0 0 0 0 0 3 127 360 403 399 369 336 245
997 1010 1411 1443 1200 834 807 540 323 188 115 2 4 53 5 4 1 0 0 0 1 2 0 0 0 0 0 0 0 0 0 0 0 0 0 2 6 109 249 349 377 293 198
1157 1215 1311 1458 855 832 371 249 179 123 26 2 1 37 2 0 0 0 0 1 1 1 0 0 0 0 0 0 0 0 0 0 0 0 0 0 4 5 44 261 291 245 192
951 862 1035 1005 567 614 238 148 28 29 1 1 6 2 0 0 0 0 0 0 1 0 0 0 0 0 0 0 0 0 0 0 0 0 0 0 0 0 9 132 274 193 130
944 949 777 466 508 305 143 64 21 1 1 0 3 0 0 0 0 0 0 0 0 0 0 0 0 0 0 0 0 0 0 0 0 0 0 0 0 0 0 8 180 132 325
986 684 652 470 290 192 94 97 15 1 0 1 1 0 0 0 0 0 0 0 0 0 0 0 0 0 0 0 0 0 0 0 0 0 0 0 0 0 0 0 2 32 132
1034 635 464 367 174 86 67 23 2 1 1 2 0 0 0 0 0 0 0 0 0 0 0 0 0 0 0 0 0 0 0 0 0 0 0 0 0 0 0 0 0 0 9
725 461 198 111 64 12 0 0 1 0 0 1 0 0 0 0 0 0 0 0 0 0 0 0 0 0 0 0 0 0 0 0 0 0 0 0 0 0 0 0 0 0 0
563 305 182 53 0 0 4 0 0 0 0 1 0 0 0 0 0 0 0 0 0 0 0 0 0 0 0 0 0 0 0 0 0 0 0 0 0 0 0 0 0 0 0
398 208 96 0 0 1 0 0 1 3 0 0 0 0 0 0 0 0 0 0 0 0 0 0 0 0 0 0 0 0 0 0 0 0 0 0 0 0 0 0 0 0 0
392 162 70 0 0 1 0 0 1 0 0 0 0 0 0 0 0 0 0 0 0 0 0 0 0 0 0 0 0 0 0 0 0 0 0 0 0 0 0 0 0 0 0
334 200 40 0 0 0 0 1 3 0 0 0 0 0 0 0 0 0 0 0 0 0 0 0 0 0 0 0 0 0 0 0 0 0 0 0 0 0 0 0 0 0 0
352 134 0 0 0 0 0 1 1 0 0 0 0 0 0 0 0 0 0 0 0 0 0 0 0 0 0 0 0 0 0 0 0 0 0 0 0 0 0 0 0 0 0
CIN
-175 -89 -17 0 0 0 0 0 0 0 0 0 0 0 0 0 0 0 0 0 0 0 0 0 0 0 0 0 0 0 0 0 0 0 -1 0 0 0 -1 -1 -4 -4 0
-196 -80 -5 -1 0 0 0 0 0 0 -1 -1 0 0 0 0 0 0 0 0 0 0 0 0 0 0 0 0 0 0 0 0 0 -5 -11 -9 -2 0 0 -1 -1 0 0
-120 -76 -15 0 0 0 0 -1 -2 -2 -1 -2 0 0 0 0 0 0 0 -1 0 0 0 0 0 0 0 0 0 0 0 0 -5 -14 -17 0 -12 0 -1 0 0 0 0
-106 -48 -27 0 0 0 0 -1 -3 -4 -1 -1 0 0 0 0 0 0 0 0 0 0 0 0 0 0 0 0 0 0 0 -5 -15 -35 -6 0 0 0 -5 0 0 0 -9
-75 -39 -23 0 0 -1 0 -1 -3 -2 0 0 0 0 0 0 0 0 0 -3 0 0 0 0 0 0 0 0 0 0 -4 -10 -29 -4 0 0 -24 0 -13 -18 0 0 0
-59 -47 -21 0 0 -3 -3 -4 -1 0 0 0 0 -1 -1 -2 0 0 0 -1 0 0 0 0 0 0 0 0 0 0 -6 -15 -65 -31 -23 -1 0 -42 0 -4 0 0 0
-66 -31 0 0 0 -4 -6 -6 -1 0 0 0 0 0 -2 0 0 0 0 0 0 0 0 0 0 0 0 0 0 -1 -19 -21 0 -1 -10 0 -4 -6 -27 -1 -8 0 0
-69 -12 0 -1 -1 -4 -8 -6 -2 0 0 0 0 0 0 0 0 0 -1 0 0 0 0 0 0 0 0 0 -16 -33 -67 -9 0 0 0 0 -3 0 -5 0 -9 0 0
-15 0 0 0 -2 -10 -20 -10 -2 0 0 0 0 0 -3 -15 -3 -7 -10 -8 0 0 0 0 0 -1 -14 -29 -16 0 -13 -18 0 0 0 0 -6 0 0 0 0 0 0
-1 -1 0 0 0 0 0 -18 -7 -2 -1 -1 -10 -67 -83 -16 -7 -7 -19 -14 0 0 -1 -16 -30 -58 -105 -167 0 0 0 -33 0 0 -1 -1 -1 0 0 0 0 0 0
0 0 0 0 0 0 0 -11 -25 -17 -39 -114 -129 -120 -28 0 0 -2 -14 -9 -10 -32 0 0 0 0 0 0 0 0 0 0 -32 -1 -2 -28 0 0 0 0 0 0 0
0 0 0 0 0 0 0 0 0 0 0 -5 -8 -21 -49 -93 -18 -66 0 0 -66 0 0 0 0 0 0 0 0 0 0 0 0 0 -13 -9 -1 0 0 0 0 0 0
-1 0 0 0 0 -1 0 0 0 0 -8 -17 -22 -159 -192 -171 -145 0 0 0 0 0 0 0 0 0 0 0 0 0 0 0 0 0 0 -46 -9 -1 0 0 0 0 0
0 0 0 0 0 -3 0 -3 -5 -21 -47 -159 -220 -236 -203 -130 -101 0 0 0 0 0 0 0 0 0 0 0 0 0 0 0 0 0 0 0 -25 0 0 0 0 0 0
-3 -1 0 0 0 0 0 -8 -53 -88 -150 -43 -45 -141 0 0 0 0 0 0 0 0 0 0 0 0 0 0 0 0 0 0 0 0 0 0 -4 -11 -3 -1 0 0 0
0 0 0 0 -12 -2 -54 -96 -116 -122 -206 0 0 -184 0 0 0 0 0 0 0 0 0 0 0 0 0 0 0 0 0 0 0 0 0 0 0 0 -18 -6 0 0 0
-2 -6 -1 -9 -58 -30 -111 -167 -271 -251 0 0 0 0 0 0 0 0 0 0 0 0 0 0 0 0 0 0 0 0 0 0 0 0 0 0 0 0 0 -2 0 0 0
-1 0 -4 -71 -57 -116 -210 -288 -317 0 0 0 0 0 0 0 0 0 0 0 0 0 0 0 0 0 0 0 0 0 0 0 0 0 0 0 0 0 0 0 0 0 0
-1 -7 -13 -71 -121 -167 -251 -244 -367 0 0 0 0 0 0 0 0 0 0 0 0 0 0 0 0 0 0 0 0 0 0 0 0 0 0 0 0 0 0 0 0 -18 0
0 -9 -42 -86 -170 -258 -271 -320 -42 0 0 0 0 0 0 0 0 0 0 0 0 0 0 0 0 0 0 0 0 0 0 0 0 0 0 0 0 0 0 0 0 0 -1
-2 -3 -90 -142 -196 -335 0 0 0 0 0 0 0 0 0 0 0 0 0 0 0 0 0 0 0 0 0 0 0 0 0 0 0 0 0 0 0 0 0 0 0 0 0
0 -14 -87 -181 0 0 -351 0 -1 0 0 0 0 0 0 0 0 0 0 0 0 0 0 0 0 0 0 0 0 0 0 0 0 0 0 0 0 0 0 0 0 0 0
0 -25 -104 0 0 0 -9 0 0 0 0 0 0 0 0 0 0 0 0 0 0 0 0 0 0 0 0 0 0 0 0 0 0 0 0 0 0 0 0 0 0 0 0
-3 -53 -108 0 0 0 0 0 0 0 0 0 0 0 0 0 0 0 0 0 0 0 0 0 0 0 0 0 0 0 0 0 0 0 0 0 0 0 0 0 0 0 0
-16 -45 -153 0 0 0 0 0 0 0 0 0 0 0 0 0 0 0 0 0 0 0 0 0 0 0 0 0 0 0 0 0 0 0 0 0 0 0 0 0 0 0 0
-14 -83 0 0 0 0 0 0 0 0 0 0 0 0 0 0 0 0 0 0 0 0 0 0 0 0 0 0 0 0 0 0 0 0 0 0 0 0 0 0 0 0 0
Wind_Speed
13 18 14 19 17 16 14 17 16 16 16 16 16 17 15 15 15 14 15 15 15 16 19 19 19 20 21 20 19 18 18 19 19 19 17 18 19 20 18 13 16 18 19
17 20 15 19 18 16 15 18 17 16 15 15 15 17 16 15 16 15 15 15 16 18 19 20 21 21 20 20 19 19 19 19 18 18 17 15 16 18 18 15 16 17 18
22 20 20 19 18 16 16 15 14 15 14 15 16 16 17 16 16 15 15 15 17 18 20 20 21 22 21 19 18 19 18 17 13 10 10 13 16 18 18 15 16 18 18
21 20 20 19 18 17 17 16 15 15 14 14 14 15 16 17 16 16 16 17 18 20 20 20 21 20 19 18 17 18 17 14 8 7 10 13 14 17 17 16 19 19 17
20 20 19 20 18 17 18 17 15 15 15 14 14 15 16 17 18 18 18 19 19 19 19 20 20 18 18 17 17 17 15 10 4 10 12 12 11 14 16 16 17 17 17
20 18 20 20 19 17 17 17 16 16 16 14 14 15 16 18 19 19 17 19 19 20 20 19 18 17 17 16 17 16 12 6 7 12 12 12 14 16 17 17 16 16 17
18 16 21 20 19 17 17 16 17 17 16 15 15 16 18 19 20 19 20 21 20 20 20 20 20 19 18 17 18 15 10 5 12 11 11 14 15 17 17 16 15 16 17
16 17 20 18 18 16 17 17 17 17 17 16 17 18 18 20 21 22 23 21 20 20 20 21 20 20 20 19 19 16 13 5 11 11 11 10 11 17 17 16 15 15 17
16 15 17 19 17 12 14 18 18 18 18 18 18 18 18 17 18 20 22 24 22 22 21 21 22 21 21 20 20 20 16 13 12 10 10 8 11 17 16 17 15 15 16
16 15 19 18 18 17 16 14 17 17 18 18 18 18 12 14 15 18 21 21 20 20 22 22 22 22 22 21 20 20 14 13 12 10 8 7 13 16 15 16 16 15 17
15 16 18 18 18 17 17 13 15 16 16 18 18 18 14 13 15 14 15 19 21 21 21 20 21 20 22 22 21 19 16 9 10 9 6 11 13 14 14 16 15 16 17
21 17 17 18 17 17 12 17 16 15 13 13 15 15 10 10 11 13 16 20 21 21 20 18 17 16 12 9 7 12 6 10 9 8 8 12 12 13 13 14 15 16 16
22 14 20 18 17 13 14 10 7 7 8 8 13 11 13 11 10 10 8 8 10 12 8 11 11 9 9 9 9 8 7 7 6 6 14 20 7 11 12 13 14 16 17
17 17 21 19 14 13 9 8 9 8 8 7 9 12 11 8 10 9 6 8 7 7 10 9 8 12 13 12 11 9 11 7 6 5 10 22 15 10 11 12 14 16 17
16 16 19 19 16 13 13 9 8 9 9 10 10 12 11 10 10 9 8 7 8 9 9 10 11 10 11 11 11 10 12 12 10 5 4 20 24 18 5 11 15 16 17
21 18 19 21 15 15 10 11 9 9 11 10 9 11 13 9 9 10 9 9 9 8 9 10 9 10 9 10 12 13 11 10 9 9 6 8 19 24 16 8 15 17 18
14 16 19 19 16 16 13 11 8 9 10 9 10 13 14 11 12 12 9 10 9 9 12 10 11 10 10 10 13 11 10 11 9 11 9 7 9 19 25 6 18 19 18
17 20 19 15 17 17 13 11 8 9 8 7 9 8 14 14 14 12 10 10 11 9 10 10 10 10 10 8 8 9 8 9 9 12 11 9 9 8 17 26 20 18 23
18 18 18 19 19 17 13 12 11 11 8 7 8 7 14 14 13 11 10 11 13 10 10 10 9 10 11 10 10 9 9 9 10 10 12 12 13 11 8 20 27 22 23
20 17 19 17 19 17 11 10 8 9 7 8 8 7 13 11 13 11 11 13 12 10 10 10 12 10 10 11 11 10 9 9 8 9 10 10 12 12 11 11 10 14 19
18 16 18 18 18 15 11 11 7 9 8 8 7 12 12 13 13 13 11 12 11 11 12 13 12 14 10 11 9 8 8 9 10 9 8 8 11 11 12 11 9 7 9
16 16 18 19 18 14 13 10 7 7 5 7 7 9 10 15 14 13 14 12 12 11 13 14 14 11 8 5 5 6 4 2 6 8 8 8 10 8 10 11 11 11 10
16 17 16 18 20 16 16 10 7 7 5 4 7 8 8 15 14 14 14 12 12 11 11 13 13 11 8 4 6 0 5 4 4 4 7 6 8 7 7 9 10 10 10
17 15 17 17 18 16 16 15 18 12 10 6 9 7 8 13 14 14 14 14 13 10 12 11 10 8 9 8 4 2 3 5 4 5 3 4 5 7 7 6 8 9 9
15 16 15 16 15 14 16 17 16 15 9 7 6 10 9 9 13 13 13 13 13 10 12 13 12 9 7 7 4 4 3 4 4 4 5 5 4 4 5 5 6 6 8
13 13 15 17 14 14 15 16 18 18 14 11 10 10 8 7 9 13 12 11 10 10 13 12 11 10 7 6 4 4 4 3 5 4 4 6 6 3 4 4 5 5 5
Wind_Direction
171 159 178 153 150 147 148 135 133 134 136 135 133 132 128 125 122 118 114 112 113 112 110 111 110 108 105 102 98 96 91 88 88 84 79 85 85 86 82 82 89 86 83
161 160 168 154 151 153 150 140 136 138 140 136 136 136 134 130 127 122 121 120 116 113 109 110 112 110 104 100 98 92 91 90 88 92 92 85 80 82 82 76 83 89 86
163 162 160 154 153 155 150 145 145 143 138 141 136 139 138 133 129 126 125 121 115 112 111 111 108 104 103 101 98 93 91 89 86 94 108 92 90 88 84 81 91 91 87
160 159 163 155 155 155 152 149 150 144 141 134 140 138 139 133 129 124 124 119 112 109 107 106 102 102 101 98 99 98 94 88 99 152 99 99 98 94 93 83 89 89 89
163 160 155 155 155 155 154 152 144 139 134 136 141 137 138 132 126 121 120 114 107 104 103 103 104 104 98 98 99 96 94 94 104 98 95 95 91 92 94 96 92 85 86
164 164 141 154 155 154 151 151 144 136 133 138 140 138 135 132 125 118 116 108 104 102 102 100 100 99 95 94 98 92 89 111 121 94 90 87 93 96 91 91 91 90 88
163 166 155 153 155 154 152 149 141 138 136 133 130 131 134 130 127 118 108 106 104 102 101 101 98 96 92 92 90 82 64 17 93 95 100 94 102 99 96 93 96 89 90
166 163 157 152 154 151 157 142 142 140 135 128 127 130 130 129 128 124 117 110 107 106 102 99 99 96 91 87 84 68 45 33 90 86 88 96 107 102 99 95 99 94 93
172 162 159 161 154 147 147 140 139 136 130 124 121 123 126 123 121 122 119 116 105 101 100 97 94 92 91 86 76 62 49 31 85 81 93 99 106 104 100 102 103 97 92
170 166 165 164 164 163 153 132 133 130 126 121 114 102 107 105 110 111 110 107 108 104 98 93 89 88 85 79 74 69 49 55 69 76 83 100 97 103 101 101 107 96 91
175 169 167 166 167 166 160 137 123 123 117 113 106 114 127 127 128 123 97 103 100 100 96 93 89 89 83 74 62 65 66 51 42 48 63 91 99 100 100 104 104 101 96
177 172 170 170 166 163 157 156 149 137 141 126 132 126 108 99 93 91 92 91 92 95 97 94 87 76 85 74 64 47 57 70 48 35 32 39 92 100 104 105 104 100 100
176 168 170 165 164 154 161 145 147 145 136 133 132 123 118 119 111 108 105 105 105 99 113 113 99 82 72 80 73 66 61 65 67 39 24 28 68 105 109 113 112 109 107
177 172 171 163 155 155 144 148 141 142 135 129 127 132 131 133 137 125 118 115 122 121 121 112 99 93 88 83 83 74 72 59 57 58 21 24 21 104 117 123 115 115 107
173 174 174 159 155 158 150 144 138 140 136 135 136 152 145 143 137 125 122 132 128 129 120 112 107 101 91 86 78 68 58 53 55 50 38 30 37 40 81 129 124 118 112
180 168 169 161 150 154 143 143 138 142 135 140 145 153 142 142 135 129 137 134 128 122 117 113 111 105 99 88 78 72 64 64 49 54 39 28 39 35 17 139 129 118 107
177 165 166 156 152 150 148 136 131 135 138 142 149 149 141 142 141 144 140 135 127 122 117 114 108 100 94 90 86 75 60 57 53 50 37 42 37 39 30 80 123 108 105
175 168 160 153 156 145 147 138 134 138 139 140 146 149 145 145 153 148 142 134 132 134 132 127 125 116 106 99 88 73 67 57 48 53 47 38 35 23 34 30 113 102 104
175 167 167 157 155 149 147 141 138 135 135 132 141 143 152 153 158 150 143 140 143 140 137 133 126 120 114 103 91 75 59 53 45 54 47 43 38 33 23 36 45 80 91
175 167 167 160 156 146 143 132 138 135 135 140 144 148 152 157 159 150 144 147 147 144 140 136 128 119 115 113 98 77 59 53 45 47 43 40 39 37 34 37 47 46 59
178 167 168 156 155 142 143 142 146 152 151 149 147 151 159 157 159 155 152 151 153 152 146 139 129 127 120 128 111 89 65 54 47 42 42 38 34 33 40 44 44 46 47
178 172 166 162 154 156 156 154 155 148 150 148 140 152 160 162 164 160 158 159 159 149 149 150 150 139 126 171 136 123 125 82 50 37 42 40 41 34 41 38 46 47 53
176 175 169 162 164 162 161 119 106 95 82 105 152 156 175 167 170 167 165 163 160 161 162 163 161 159 146 171 186 273 154 150 131 37 48 46 45 45 45 40 41 42 43
176 169 169 169 169 169 155 152 160 167 167 179 174 159 162 173 175 175 172 168 168 168 168 170 170 162 160 153 150 59 12 118 156 148 85 61 55 54 48 42 42 46 49
169 169 166 164 167 166 170 173 167 165 170 151 154 150 155 168 175 175 175 173 172 172 171 170 173 174 171 161 151 148 110 105 97 146 146 146 106 65 61 52 50 43 41
172 167 162 159 157 163 176 175 176 169 160 159 162 164 164 165 169 179 174 173 167 168 173 174 175 176 163 150 150 154 168 172 157 146 120 147 132 91 74 70 71 65 54